COSMOS 1642

导读

**COSMOS 1642卫星简介** COSMOS 1642(宇宙1642)是苏联(CIS)在1985年3月21日发射的人造卫星,属于苏/俄“宇宙”(COSMOS/Kosmos)系列卫星。该系列是全球规模最大的卫星家族,自1962年启动以来发射超2500颗,覆盖科研、导航等领域,多数承担军事相关任务,是冷战时期苏联空间探索的重要组成部分。

Basic Information
目录编号:
15624
目录名称:
COSMOS 1642
国际标识:
1985-023H
轨道中心:
EARTH
卫星名称:
COSMOS 1642
卫星全名:
--
卫星状态:
在轨 (已飞行15063 天)
发射日期:
1985-03-21 UTC
国别 :
俄罗斯(独联体) (CIS)
星等 :
--
Orbit Information
数据来源 国际轨道数据 AOE轨道数据
星历时间 2026-06-17T09:43:04+0800
7小时前
查看轨道信息
2026-06-15T06:00:00+0800
2天前
查看轨道信息
半长轴 7816.004km 7816.001km
偏心率 0.0051232 0.005131
轨道倾角 74.054° 74.054°
近地点辐角 189.953° 193.117°
升交点赤经 127.596° 130.490°
平近点角 246.430° 219.874°
近地点 1397.824km 1397.76km
远地点 1477.91km 1477.968km
周期 114.614分钟 114.614分钟
每日圈数 12.563934 12.563941
Detailed Information
使用方式:
暂无
2D Orbit Map
3D Orbit Map
Orbit Altitude Analysis Chart
Orbit Inclination Analysis Chart
Orbit Comprehensive Analysis Chart
View Comprehensive Chart